GW5544 Weather Reports


time (UTC)temp
C
wind
direction
speed
KPH
gust
KPH
rain 1hr
cm
rain 24hr
cm
rain mn
cm
humidity
%
barometer
mb
20260504232011 15 115 1.6 4.8 0.00 0.00 0.00 53 1006.4
20260504231521 15 124 3.2 4.8 0.00 0.00 0.00 51 1006.3
20260504231006 16 114 1.6 4.8 0.00 0.00 0.00 51 1006.2
20260504230504 16 160 3.2 4.8 0.00 0.00 0.00 48 1006.1
20260504230008 17 124 1.6 4.8 0.00 0.00 0.00 45 1006.1
20260504225504 18 70 1.6 3.2 0.00 0.00 0.00 42 1006.0
20260504225005 18 207 0.0 1.6 0.00 0.00 0.00 40 1006.1
20260504224511 19 207 0.0 1.6 0.00 0.00 0.00 38 1006.0
20260504224006 19 207 0.0 1.6 0.00 0.00 0.00 39 1005.9
20260504223507 19 207 0.0 3.2 0.00 0.00 0.00 37 1005.9
20260504223016 20 283 1.6 3.2 0.00 0.00 0.00 35 1005.9
20260504222508 20 158 1.6 3.2 0.00 0.00 0.00 36 1005.9
20260504222009 20 348 0.0 3.2 0.00 0.00 0.00 35 1005.9
20260504221519 20 77 0.0 3.2 0.00 0.00 0.00 35 1005.9
20260504221009 20 218 1.6 3.2 0.00 0.00 0.00 36 1005.9
20260504220503 20 60 1.6 4.8 0.00 0.00 0.00 37 1005.9
20260504220006 20 245 1.6 6.4 0.00 0.00 0.00 36 1005.9
20260504215502 20 297 1.6 6.4 0.00 0.00 0.00 36 1005.9
20260504215006 20 246 1.6 4.8 0.00 0.00 0.00 38 1005.9
20260504214509 20 181 1.6 3.2 0.00 0.00 0.00 37 1005.9
20260504214006 20 285 1.6 3.2 0.00 0.00 0.00 36 1005.9
20260504213509 20 26 1.6 3.2 0.00 0.00 0.00 36 1005.9
20260504213026 20 265 0.0 3.2 0.00 0.00 0.00 36 1005.9
20260504212507 20 212 3.2 3.2 0.00 0.00 0.00 35 1005.8
20260504212007 20 276 1.6 3.2 0.00 0.00 0.00 36 1005.8
20260504211503 20 294 1.6 4.8 0.00 0.00 0.00 38 1005.8
20260504211003 20 268 1.6 4.8 0.00 0.00 0.00 37 1005.8
20260504210505 20 160 1.6 9.7 0.00 0.00 0.00 35 1005.8
20260504210004 20 204 3.2 9.7 0.00 0.00 0.00 36 1005.8
20260504205503 20 278 1.6 6.4 0.00 0.00 0.00 35 1005.8
20260504205002 20 10 1.6 6.4 0.00 0.00 0.00 37 1005.8
20260504204509 20 296 1.6 8.0 0.00 0.00 0.00 35 1005.8
20260504204006 20 195 3.2 8.0 0.00 0.00 0.00 34 1005.7
20260504203506 20 280 3.2 8.0 0.00 0.00 0.00 35 1005.7
20260504203009 20 288 1.6 8.0 0.00 0.00 0.00 36 1005.8
20260504202509 20 291 1.6 8.0 0.00 0.00 0.00 36 1005.8
20260504202006 20 286 1.6 8.0 0.00 0.00 0.00 37 1005.8
20260504201513 20 297 1.6 4.8 0.00 0.00 0.00 39 1005.9
20260504201006 20 280 1.6 6.4 0.00 0.00 0.00 39 1006.0
20260504200508 19 325 1.6 6.4 0.00 0.00 0.00 38 1006.0
20260504200006 19 281 3.2 8.0 0.00 0.00 0.00 38 1006.0
20260504195504 18 259 3.2 8.0 0.00 0.00 0.00 38 1006.0
20260504195003 18 281 3.2 14.5 0.00 0.00 0.00 39 1006.0
20260504194510 18 299 3.2 14.5 0.00 0.00 0.00 38 1006.0
20260504194003 19 339 3.2 6.4 0.00 0.00 0.00 39 1006.1
20260504193502 19 60 3.2 6.4 0.00 0.00 0.00 37 1006.1
20260504193013 19 281 1.6 12.9 0.00 0.00 0.00 37 1006.1
20260504192505 20 186 4.8 12.9 0.00 0.00 0.00 37 1006.1
20260504192006 20 283 1.6 9.7 0.00 0.00 0.00 37 1006.1
20260504191511 20 341 1.6 9.7 0.00 0.00 0.00 37 1006.0
20260504191009 20 234 3.2 9.7 0.00 0.00 0.00 36 1006.0
20260504190508 20 207 3.2 9.7 0.00 0.00 0.00 38 1006.0
20260504190021 18 233 1.6 8.0 0.00 0.00 0.00 40 1006.2
20260504185506 18 235 1.6 8.0 0.00 0.00 0.00 39 1006.2
20260504185007 18 268 1.6 4.8 0.00 0.00 0.00 42 1006.1
20260504184513 17 285 1.6 3.2 0.00 0.00 0.00 42 1006.2
20260504184005 16 287 0.0 3.2 0.00 0.00 0.00 45 1006.3
20260504183503 16 305 1.6 3.2 0.00 0.00 0.00 47 1006.3
20260504183008 16 309 1.6 4.8 0.00 0.00 0.00 42 1006.3
20260504182505 16 270 1.6 6.4 0.00 0.00 0.00 44 1006.2
20260504182008 17 301 1.6 8.0 0.00 0.00 0.00 42 1006.3
20260504181510 17 319 1.6 8.0 0.00 0.00 0.00 44 1006.3
20260504181007 17 309 0.0 3.2 0.00 0.00 0.00 43 1006.3
20260504180507 17 304 1.6 3.2 0.00 0.00 0.00 42 1006.2
20260504180020 17 266 1.6 4.8 0.00 0.00 0.00 42 1006.2
20260504175507 17 208 1.6 6.4 0.00 0.00 0.00 42 1006.2
20260504175010 17 268 1.6 9.7 0.00 0.00 0.00 41 1006.2
20260504174522 17 271 3.2 11.3 0.00 0.00 0.00 39 1006.2
20260504174007 17 313 3.2 11.3 0.00 0.00 0.00 39 1006.2
20260504173502 17 256 1.6 9.7 0.00 0.00 0.00 41 1006.2
20260504173011 17 248 1.6 9.7 0.00 0.00 0.00 41 1006.1
20260504172503 17 343 3.2 8.0 0.00 0.00 0.00 40 1006.0
20260504172006 17 311 3.2 9.7 0.00 0.00 0.00 38 1005.9
20260504171508 17 28 3.2 12.9 0.00 0.00 0.00 37 1005.9
20260504171008 18 319 4.8 12.9 0.00 0.00 0.00 36 1006.0
20260504170504 18 190 4.8 12.9 0.00 0.00 0.00 35 1005.9
20260504151004 15 265 3.2 8.0 0.00 0.00 0.00 46 1007.1
20260504150506 15 207 3.2 9.7 0.00 0.00 0.00 51 1007.2
20260504141015 12 245 1.6 4.8 0.00 0.00 0.00 57 1007.9
20260504140507 12 203 1.6 6.4 0.00 0.00 0.00 59 1008.0
20260504130504 11 321 1.6 8.0 0.00 0.00 0.00 63 1008.7
20260504110504 5 221 0.0 1.6 0.00 0.03 0.00 74 1008.9
20260504100507 2 119 0.0 1.6 0.00 0.03 0.00 80 1008.9
20260504082006 0 120 0.0 0.0 0.00 0.03 0.00 88 1008.6
20260504081509 0 120 0.0 0.0 0.00 0.03 0.00 88 1008.5
20260504081010 0 120 0.0 0.0 0.00 0.03 0.00 88 1008.6
20260504080507 0 120 0.0 0.0 0.00 0.03 0.00 88 1008.5
20260504050505 0 228 0.0 1.6 0.00 0.03 0.00 86 1008.5
20260504050010 0 227 0.0 1.6 0.00 0.03 0.00 85 1008.5
20260504045505 0 227 0.0 0.0 0.00 0.03 0.00 85 1008.5
20260504045005 1 227 0.0 0.0 0.00 0.03 0.00 85 1008.5
20260504044510 1 227 0.0 0.0 0.00 0.03 0.00 84 1008.3
20260504044011 1 227 0.0 0.0 0.00 0.03 0.00 84 1008.4
20260504043508 1 228 0.0 0.0 0.00 0.03 0.00 84 1008.5
20260504043014 1 227 0.0 0.0 0.00 0.03 0.00 83 1008.5
20260504042508 1 227 0.0 0.0 0.00 0.03 0.00 82 1008.5
20260504042009 1 227 0.0 0.0 0.00 0.03 0.00 82 1008.5
20260504041519 1 227 0.0 0.0 0.00 0.03 0.00 82 1008.5
20260504041008 2 228 0.0 0.0 0.00 0.03 0.00 81 1008.5
20260504040507 2 228 0.0 0.0 0.00 0.03 0.00 81 1008.4
20260504040026 2 227 0.0 0.0 0.00 0.03 0.00 81 1008.4
20260504035509 2 228 0.0 0.0 0.00 0.03 0.03 79 1008.5
20260504035004 2 227 0.0 1.6 0.00 0.03 0.03 78 1008.3
20260504034517 2 230 0.0 1.6 0.00 0.03 0.03 78 1008.3
20260504034006 2 255 0.0 1.6 0.00 0.03 0.03 77 1008.3
20260504033505 2 241 0.0 1.6 0.00 0.03 0.03 76 1008.3
20260504033012 2 238 0.0 1.6 0.00 0.03 0.03 78 1008.2
20260504032509 2 238 0.0 1.6 0.00 0.03 0.03 77 1008.3
20260504032007 2 238 0.0 1.6 0.00 0.03 0.03 78 1008.3
20260504031518 2 238 0.0 1.6 0.00 0.03 0.03 77 1008.2
20260504031010 2 238 0.0 1.6 0.00 0.03 0.03 78 1008.2
20260504030508 2 238 0.0 1.6 0.00 0.05 0.03 78 1008.2
20260504030023 2 238 0.0 0.0 0.00 0.05 0.03 78 1008.2
20260504025510 2 238 0.0 0.0 0.00 0.05 0.03 76 1008.2
20260504025009 3 238 0.0 0.0 0.00 0.05 0.03 75 1008.2
20260504024533 3 238 0.0 0.0 0.00 0.05 0.03 75 1008.2
20260504024005 3 238 0.0 0.0 0.00 0.05 0.03 73 1008.2
20260504023504 3 238 0.0 0.0 0.00 0.05 0.03 71 1008.3
20260504023010 3 238 0.0 0.0 0.00 0.05 0.03 70 1008.3
20260504022506 3 238 0.0 1.6 0.00 0.05 0.03 70 1008.3
20260504022007 3 238 0.0 1.6 0.00 0.05 0.03 71 1008.3
20260504021516 3 295 0.0 1.6 0.00 0.05 0.03 69 1008.2
20260504021007 3 295 0.0 1.6 0.00 0.05 0.03 68 1008.2
20260504020508 3 295 0.0 1.6 0.00 0.05 0.03 67 1008.3
20260504020020 3 295 0.0 1.6 0.00 0.05 0.03 67 1008.2
20260504015510 3 295 0.0 1.6 0.00 0.05 0.03 66 1008.3
20260504015013 4 295 0.0 1.6 0.00 0.05 0.03 66 1008.2
20260504014524 4 295 0.0 1.6 0.00 0.05 0.03 66 1008.2
20260504014013 4 295 0.0 1.6 0.00 0.08 0.03 66 1008.1
20260504013507 4 295 0.0 1.6 0.00 0.08 0.03 69 1008.1
20260504013034 5 295 0.0 1.6 0.00 0.08 0.03 66 1008.0
20260504012504 5 295 0.0 1.6 0.00 0.08 0.03 65 1008.0
20260504012008 5 295 0.0 1.6 0.00 0.10 0.03 64 1008.1
20260504011512 5 295 0.0 1.6 0.00 0.10 0.03 65 1007.9
20260504011012 5 295 0.0 0.0 0.00 0.13 0.03 63 1007.8
20260504010507 6 295 0.0 1.6 0.00 0.13 0.03 64 1007.8
20260504010016 6 295 0.0 3.2 0.00 0.13 0.03 62 1007.5
20260504005507 6 295 0.0 4.8 0.00 0.15 0.03 63 1007.5
20260504005008 6 280 0.0 4.8 0.00 0.15 0.03 60 1007.4
20260504004522 6 310 0.0 3.2 0.00 0.15 0.03 61 1007.3
20260504004007 6 316 1.6 3.2 0.00 0.15 0.03 63 1007.1
20260504003511 6 314 1.6 1.6 0.00 0.15 0.03 61 1007.0
20260504003037 6 302 0.0 1.6 0.00 0.15 0.03 61 1006.9
20260504002507 6 302 0.0 1.6 0.00 0.15 0.03 60 1006.8
20260504002012 6 301 0.0 3.2 0.00 0.15 0.03 59 1006.8
20260504001526 6 307 1.6 3.2 0.00 0.15 0.03 55 1006.7
20260504001007 6 301 0.0 3.2 0.00 0.15 0.03 59 1006.7
20260504000507 7 330 0.0 3.2 0.00 0.15 0.03 57 1006.6
20260504000016 7 317 0.0 3.2 0.00 0.15 0.03 58 1006.5
20260503235507 7 323 0.0 3.2 0.00 0.15 0.03 57 1006.5
20260503235008 7 319 1.6 3.2 0.00 0.15 0.03 56 1006.4
20260503234504 7 331 1.6 4.8 0.00 0.15 0.03 52 1006.3
20260503234004 7 302 1.6 4.8 0.00 0.15 0.03 53 1006.2
20260503233505 7 290 1.6 8.0 0.00 0.15 0.03 54 1006.1
20260503233004 8 307 1.6 8.0 0.00 0.15 0.03 50 1006.1
20260503232503 8 284 0.0 3.2 0.00 0.15 0.03 57 1005.9